This demonstration page uses our WeatherBlox Daily Observations layout. Learn more.

39.01783, -85.05884

Hourly Observations for November 8, 2019

Temp ( °F °C ) Dew Point ( °F °C ) Humidity (%) Winds ( mph kmh ) Pressure ( in mb ) Visibility ( mi km ) Precip ( " mm )
12:52 am 00:52 Clear 28 -2.2 17 -8.3 63 63 N 15 24 30.4 1030 10 16.0934 0 0
1:52 am 01:52 Clear 26 -3.3 16 -8.9 66 66 NNW 10 17 30.41 1030 10 16.0934 0 0
2:52 am 02:52 Clear 25 -3.9 15 -9.4 66 66 NNW 8 13 30.42 1030 10 16.0934 0 0
3:52 am 03:52 Clear 24 -4.4 14 -10 65 65 N 10 17 30.43 1030 10 16.0934 0 0
4:52 am 04:52 Clear 23 -5 14 -10 68 68 N 9 15 30.43 1031 10 16.0934 0 0
5:52 am 05:52 Clear 23 -5 14 -10 68 68 NNW 7 11 30.44 1031 10 16.0934 0 0
6:52 am 06:52 Clear 22 -5.6 14 -10 71 71 NNW 8 13 30.45 1031 10 16.0934 0 0
7:52 am 07:52 Sunny 23 -5 15 -9.4 72 72 NNW 6 9 30.47 1032 10 16.0934 0 0
8:52 am 08:52 Mostly Sunny 25 -3.9 16 -8.9 69 69 N 9 15 30.48 1032 10 16.0934 0 0
9:52 am 09:52 Mostly Cloudy 29 -1.7 17 -8.3 61 61 NNE 7 11 30.47 1032 10 16.0934 0 0
10:52 am 10:52 Mostly Cloudy 32 0 16 -8.9 52 52 ENE 7 11 30.47 1032 10 16.0934 0 0
11:52 am 11:52 Mostly Cloudy 33 0.6 15 -9.4 47 47 NE 8 13 30.45 1031 10 16.0934 0 0
12:52 pm 12:52 Partly Cloudy 34 1.1 16 -8.9 48 48 Calm 30.44 1031 10 16.0934 0 0
1:52 pm 13:52 Mostly Cloudy 35 1.7 16 -8.9 46 46 Calm 30.41 1030 10 16.0934 0 0
2:52 pm 14:52 Cloudy 37 2.8 15 -9.4 41 41 N 7 11 30.4 1030 10 16.0934 0 0
3:52 pm 15:52 Cloudy 37 2.8 15 -9.4 41 41 VRB 3 6 30.4 1030 10 16.0934 0 0
4:52 pm 16:52 Cloudy 35 1.7 15 -9.4 44 44 Calm 30.38 1029 10 16.0934 0 0
5:52 pm 17:52 Cloudy 34 1.1 16 -8.9 48 48 NNW 3 6 30.38 1029 10 16.0934 0 0
6:52 pm 18:52 Partly Cloudy 33 0.6 17 -8.3 52 52 N 5 7 30.39 1029 10 16.0934 0 0
7:52 pm 19:52 Clear 31 -0.6 17 -8.3 56 56 NNE 5 7 30.39 1029 10 16.0934 0 0
8:52 pm 20:52 Clear 31 -0.6 17 -8.3 56 56 Calm 30.37 1029 10 16.0934 0 0
9:52 pm 21:52 Clear 29 -1.7 20 -6.7 69 69 ESE 3 6 30.35 1028 10 16.0934 0 0
10:52 pm 22:52 Clear 28 -2.2 20 -6.7 72 72 SSE 5 7 30.33 1027 10 16.0934 0 0
11:52 pm 23:52 Clear 28 -2.2 19 -7.2 69 69 Calm 30.32 1027 10 16.0934 0 0

Powered by AerisWeather